Location: Newark
(3.0500°N, 36.0167°E)
Time: 18:20:21
(UTC+00:00)

A-11 Canister half - Pass Details

Date: 26 August 2019
Orbit: 1527 x 1682 km, 47.3° (Epoch: 22 September)

Event Time Altitude Azimuth Distance (km) Brightness Sun altitude
Rises 17:47:02 0° 308° (NW) 4,897 12.6 -31.0°
Reaches altitude 10° 17:50:20 10° 303° (WNW) 3,895 11.9 -31.8°
Maximum altitude 17:59:49 50° 231° (SW) 1,991 9.6 -34.1°
Enters shadow 18:03:30 35° 182° (S) 2,368 9.8 -35.0°
Drops below altitude 10° 18:09:02 10° 158° (SSE) 3,785 - -36.4°
Sets 18:12:14 0° 153° (SSE) 4,750 - -37.1°
